Temp
18 15 15 16 15 17 17 16 16 16 17 16 17 17 18 19 17 16 16 15 15 16 16 15 14 13 13 14 14 13 13 12 12 12 11 10 10 9 9 8 8 8 8 7
16 15 16 17 16 16 16 16 16 16 17 17 16 17 19 19 19 18 17 15 15 14 13 11 11 11 13 12 13 13 12 12 12 12 11 10 9 8 8 7 7 7 7 6
15 17 17 16 16 16 15 16 16 16 17 17 16 18 18 18 17 18 17 16 16 15 13 12 11 11 11 10 11 12 12 12 12 12 11 9 9 8 7 6 6 6 6 5
14 16 17 17 16 16 15 16 17 16 15 14 18 17 19 19 19 19 19 17 15 13 14 12 11 10 10 10 11 12 12 12 11 11 10 9 7 6 6 6 5 5 5 4
15 15 15 15 16 16 16 17 16 16 15 15 15 15 16 17 18 19 19 18 16 13 13 12 11 10 9 9 11 11 11 11 11 11 11 9 8 7 6 5 5 4 3 3
14 15 16 15 17 17 17 17 16 16 14 13 16 16 18 18 18 19 20 19 13 14 12 11 10 8 7 9 10 10 10 10 10 10 10 10 8 6 5 4 4 3 3 2
14 14 15 16 14 15 15 13 12 12 12 15 16 15 18 17 12 11 10 9 9 10 10 8 7 7 6 7 7 8 9 8 9 9 9 8 7 6 5 4 3 3 2 1
13 13 14 15 15 15 13 13 11 13 14 15 16 14 15 12 12 11 9 8 8 7 7 7 7 7 6 6 7 7 8 7 8 8 7 6 6 5 4 4 3 2 2 1
12 12 14 14 15 15 15 13 14 13 14 12 15 15 11 12 11 10 9 8 7 6 6 7 7 7 7 7 6 7 6 6 6 6 6 5 5 4 4 3 2 2 1 0
12 11 14 14 15 14 16 15 12 11 12 13 13 13 12 10 10 9 8 7 7 7 7 6 7 7 7 6 6 6 6 5 6 5 5 4 4 3 3 2 1 1 0 -0
12 11 12 13 14 13 13 12 11 10 11 11 12 12 10 9 9 10 9 8 7 7 6 6 5 6 6 6 5 5 5 4 4 5 4 3 2 2 2 1 1 0 -0 -1
11 9 10 11 13 12 13 13 13 10 10 10 11 12 8 8 9 10 10 10 9 9 8 7 6 6 6 5 5 5 4 4 4 3 3 2 2 1 1 0 -0 -0 -1 -2
11 8 9 11 11 12 11 10 10 9 8 9 10 10 9 7 9 9 10 10 9 8 8 6 4 4 5 5 4 3 3 2 2 2 2 1 1 0 0 -0 -1 -1 -2 -2
11 8 9 9 10 11 10 10 9 9 6 8 9 11 11 10 9 10 10 10 9 8 8 7 5 3 4 4 3 3 2 2 2 1 1 0 0 0 -0 -1 -1 -2 -2 -3
9 9 8 10 11 11 10 10 10 8 9 9 10 11 12 13 10 11 10 11 10 9 8 7 7 4 4 4 3 2 2 1 1 0 0 -0 -0 -1 -1 -2 -2 -3 -3 -4
7 9 8 9 9 9 9 9 10 10 10 10 10 10 12 13 12 11 11 11 11 10 9 8 7 5 4 3 2 2 1 0 0 -0 -1 -1 -1 -1 -2 -2 -3 -4 -4 -5
6 5 7 8 9 9 7 9 9 8 9 10 9 10 11 10 10 11 10 10 11 11 10 9 8 5 4 3 3 1 0 0 -0 -1 -2 -2 -2 -2 -3 -4 -4 -5 -5 -6
7 7 7 8 7 7 9 10 10 9 9 10 11 10 9 9 9 9 8 8 8 8 8 9 8 5 4 3 2 1 -0 -0 -1 -2 -2 -2 -3 -4 -4 -4 -5 -6 -6 -7
7 8 7 7 7 8 9 9 9 10 10 11 9 9 9 8 8 8 9 7 5 5 5 6 7 5 3 2 1 0 -0 -1 -2 -3 -3 -4 -4 -4 -5 -5 -6 -7 -7 -8
7 8 7 6 6 5 8 10 10 11 8 8 9 8 8 8 6 6 7 4 3 3 2 3 3 3 2 1 0 -1 -2 -2 -2 -3 -4 -4 -4 -4 -5 -6 -7 -8 -8 -9
7 6 7 6 6 7 8 9 10 7 7 8 9 8 7 6 5 6 4 3 2 2 2 2 2 2 0 -1 -0 -1 -2 -2 -3 -4 -4 -4 -4 -5 -6 -7 -7 -8 -8 -9
7 6 5 7 6 5 8 8 8 8 7 8 8 7 7 5 5 4 3 2 1 1 1 1 0 -0 -0 -1 -1 -2 -2 -3 -3 -4 -5 -4 -5 -6 -7 -7 -8 -8 -8 -9
7 7 5 5 6 7 7 8 8 7 7 8 8 7 6 5 5 3 3 1 1 1 2 1 1 0 -0 -0 -1 -2 -3 -3 -4 -5 -4 -5 -6 -7 -7 -8 -8 -9 -9 -9
7 6 6 6 6 6 7 8 8 8 7 6 7 7 6 5 5 3 2 2 2 2 2 2 1 -0 -1 -1 -2 -2 -3 -3 -4 -5 -5 -6 -6 -7 -7 -8 -8 -8 -9 -9
5 5 5 5 6 6 6 6 7 7 6 6 6 6 6 5 5 3 2 2 2 2 2 1 0 -1 -1 -2 -2 -3 -3 -4 -4 -5 -5 -6 -6 -7 -8 -8 -8 -8 -8 -9
4 5 4 3 5 6 5 6 7 6 5 5 5 5 5 5 5 3 2 2 1 1 1 1 -1 -2 -2 -2 -3 -3 -4 -3 -4 -5 -5 -6 -7 -7 -7 -8 -8 -8 -8 -9
Height
753 765 769 760 762 760 762 768 767 759 751 755 749 741 736 729 730 731 728 728 727 725 725 731 734 740 745 752 759 764 769 775 778 781 783 787 790 796 799 802 804 804 805 805
760 762 754 753 757 761 763 764 762 758 751 751 747 730 727 723 718 716 716 720 721 723 725 728 731 735 740 746 753 760 767 771 775 778 781 785 789 795 799 801 804 806 806 805
760 749 748 753 755 760 761 763 763 760 753 747 748 715 720 713 710 707 709 708 711 714 718 724 727 729 736 742 748 755 762 768 774 778 782 786 790 795 798 802 804 805 806 807
753 745 747 750 754 757 757 751 751 755 762 767 742 733 711 711 708 704 703 706 708 711 713 718 724 728 732 738 745 753 760 766 772 776 780 782 785 791 797 799 801 803 805 806
741 741 748 750 746 748 747 742 749 751 759 757 753 761 716 708 713 709 703 701 703 704 706 711 717 725 732 737 743 751 758 763 768 772 775 779 785 790 796 799 803 805 806 807
744 736 736 741 738 739 741 745 749 751 760 763 743 753 701 717 713 702 696 697 709 704 707 713 719 726 733 738 745 750 756 761 768 772 775 778 782 787 792 799 802 804 805 807
740 738 733 732 742 740 743 760 775 770 769 741 732 745 713 714 730 731 729 726 721 710 709 713 718 726 731 737 743 750 755 761 766 771 775 778 784 789 790 796 801 805 805 806
747 745 734 733 735 740 746 752 772 755 749 739 726 736 728 735 734 735 735 734 728 724 723 725 727 729 734 740 745 749 754 762 768 770 774 778 784 787 789 796 800 804 806 808
751 748 732 731 730 732 738 749 741 749 740 753 730 723 737 730 734 740 742 739 737 734 730 730 735 738 739 744 749 751 754 761 767 774 778 780 786 787 786 794 799 803 807 809
747 751 738 732 727 730 729 735 750 754 748 741 729 727 732 744 749 750 748 750 746 742 738 737 738 738 743 747 749 753 757 760 766 771 776 782 786 788 787 792 797 800 804 809
752 757 748 738 735 737 738 742 757 764 754 751 733 735 747 754 756 753 749 746 744 744 745 747 748 745 745 749 753 757 761 763 769 771 775 781 787 787 788 794 795 798 804 809
754 767 758 750 737 735 732 735 736 758 759 755 746 738 756 759 754 750 746 741 741 740 743 750 753 754 755 755 756 759 763 767 772 778 777 780 785 787 788 792 797 798 802 809
750 765 764 750 745 738 742 745 748 756 764 755 751 747 746 754 745 743 739 736 736 743 739 744 757 759 760 763 766 764 767 772 775 777 778 783 788 791 790 793 796 799 803 806
749 759 757 755 747 744 748 748 753 753 781 757 749 737 737 738 741 737 731 731 734 734 737 740 744 751 754 760 765 768 772 773 775 779 783 786 790 791 793 795 798 802 805 804
751 754 754 745 740 742 742 742 744 752 748 751 733 736 724 725 729 724 720 725 730 731 732 735 737 746 749 748 752 762 770 773 776 779 784 788 791 793 797 798 798 800 802 804
752 746 750 746 741 744 743 741 739 738 735 735 731 731 723 718 720 720 715 718 720 719 722 726 728 737 745 753 758 761 765 769 774 780 784 788 789 793 797 798 800 800 801 805
755 758 749 740 738 737 749 734 733 738 730 726 734 726 724 722 719 717 717 717 713 713 715 718 719 726 737 746 751 756 760 763 770 778 784 788 793 796 795 800 802 801 800 804
745 748 743 740 744 739 723 719 719 725 723 721 719 724 725 725 722 718 717 715 714 715 712 709 712 720 729 739 747 754 759 758 767 772 782 788 794 799 799 795 800 806 805 803
736 737 741 740 739 728 720 718 719 719 718 715 721 723 721 722 720 715 711 714 715 713 710 703 705 714 724 732 742 751 758 762 765 770 778 787 794 794 797 798 801 808 805 804
728 728 737 738 744 752 722 711 709 709 729 720 719 721 722 723 731 726 711 716 719 714 710 708 712 719 727 734 740 749 757 761 764 771 778 786 792 792 797 801 801 807 802 805
721 725 724 730 736 728 715 711 711 732 732 715 715 717 719 726 723 713 712 714 717 718 714 715 722 727 731 736 742 749 756 762 766 771 777 786 791 792 795 800 804 802 803 808
711 724 732 725 734 738 708 711 719 716 714 711 711 714 716 716 714 713 713 715 716 719 721 719 723 729 734 738 743 751 759 762 765 772 779 784 789 792 796 798 802 801 803 812
708 704 715 720 716 705 704 703 705 707 711 709 708 709 712 713 712 712 712 715 718 720 723 722 725 730 736 739 743 750 755 760 766 774 780 784 788 793 795 798 799 801 808 807
700 704 705 707 702 703 702 702 704 705 706 706 707 706 708 709 709 710 712 712 715 718 720 722 724 728 734 738 744 747 755 761 768 774 780 783 786 791 796 798 800 805 806 804
705 704 705 704 702 703 704 705 702 702 702 704 704 704 704 705 705 707 709 710 712 715 718 720 723 726 733 738 744 749 755 761 766 772 777 782 786 790 795 799 803 803 804 805
705 701 707 711 698 697 700 698 697 699 700 699 701 698 697 699 699 701 703 705 708 712 716 719 722 727 733 739 743 749 755 760 762 769 775 781 786 791 795 798 801 803 804 806
Wind_Speed
2 3 8 14 12 8 4 5 8 4 8 7 12 17 15 13 5 9 10 9 13 17 9 16 24 29 34 37 37 35 34 32 32 33 33 28 26 22 19 16 15 15 14 13
2 10 8 7 5 8 9 14 14 6 7 6 7 22 17 15 13 10 10 9 14 9 9 9 22 29 37 39 39 38 36 35 35 34 31 29 28 22 20 19 16 14 12 13
11 6 3 4 5 5 6 11 6 13 5 7 8 25 9 7 5 7 7 8 8 16 15 12 17 27 30 33 39 40 37 35 33 32 29 30 25 25 25 20 18 15 12 13
10 8 15 17 10 7 15 8 12 11 3 6 4 13 3 4 11 7 9 7 8 8 9 11 14 21 28 30 37 37 35 32 32 32 33 33 27 25 23 21 19 15 12 13
8 6 6 6 10 7 9 8 6 5 5 3 4 5 3 7 8 8 8 9 9 10 15 16 16 21 23 31 36 34 33 32 34 33 35 33 31 29 26 22 18 15 14 13
5 2 4 8 6 6 1 1 2 2 3 8 7 9 23 2 7 6 5 6 9 5 7 8 16 23 23 31 35 34 33 30 29 31 34 33 32 32 28 22 19 16 14 14
2 4 3 4 5 5 4 5 3 3 3 13 9 7 17 9 11 9 12 15 15 11 6 12 16 16 26 30 32 32 32 29 30 32 32 31 31 28 26 22 18 16 15 14
3 4 5 2 5 5 5 9 5 7 6 7 2 6 2 5 9 10 9 8 11 12 8 7 9 17 24 26 28 30 32 30 30 31 32 30 28 26 24 20 18 16 15 14
2 5 4 3 3 6 0 3 4 6 10 3 7 8 6 9 17 15 13 11 9 7 7 8 10 17 23 24 26 32 32 30 30 30 29 27 25 25 25 21 18 17 15 13
4 4 3 4 1 1 2 1 3 2 3 5 5 4 2 12 13 11 12 9 8 8 7 5 8 18 18 22 26 29 31 32 32 31 28 27 25 24 24 22 20 18 16 13
5 2 5 3 1 4 0 4 3 1 4 3 3 2 7 10 9 10 7 3 5 6 7 7 6 9 17 21 22 24 27 29 30 30 29 28 25 24 23 22 21 20 17 13
6 3 4 7 7 4 1 2 8 4 3 3 1 0 4 5 7 6 9 5 4 9 11 8 8 8 9 15 22 25 25 25 28 27 29 27 24 24 25 23 21 20 18 14
5 4 2 8 2 1 2 2 3 3 2 4 4 4 12 7 10 7 13 9 4 5 7 12 7 7 8 6 7 17 22 23 25 26 26 25 26 25 25 24 23 20 19 17
3 5 6 9 10 3 2 5 6 4 2 3 5 4 6 10 11 11 11 10 9 10 8 11 14 13 20 17 15 14 17 25 26 26 27 26 24 25 25 24 23 20 16 15
6 14 6 13 16 8 6 6 7 8 6 5 9 6 12 7 10 12 11 12 13 11 11 12 12 11 22 30 29 28 25 24 26 26 25 24 25 25 24 25 22 19 16 14
2 13 6 8 12 9 12 8 11 11 12 12 13 15 6 4 4 8 10 13 14 16 16 15 15 15 21 22 23 25 25 26 29 27 26 27 26 25 26 23 20 18 17 16
4 3 5 15 6 5 5 13 12 6 6 9 9 6 4 7 7 6 4 1 4 13 16 15 17 17 25 28 29 29 31 32 31 28 25 24 24 25 26 24 19 17 17 15
8 4 2 3 3 6 5 3 5 8 9 8 3 3 2 5 6 7 6 5 5 7 8 13 13 21 28 29 28 29 30 31 29 28 25 25 23 24 24 22 18 15 15 16
15 10 5 3 4 5 6 6 7 7 5 3 5 3 1 6 7 7 3 2 5 5 7 10 20 24 29 31 32 31 28 29 30 29 27 26 26 25 22 20 18 17 17 16
13 11 7 4 3 6 4 1 5 4 4 6 4 4 3 1 1 5 6 3 2 2 5 10 17 22 26 27 33 32 27 26 24 26 26 27 26 25 22 19 19 17 17 14
8 4 8 7 4 5 6 5 3 4 5 5 3 4 3 4 6 5 4 3 3 4 13 19 18 18 22 28 31 27 26 24 27 30 28 26 24 23 21 20 20 18 16 14
10 8 5 6 5 9 7 3 8 6 3 4 3 3 6 7 7 6 4 4 6 7 13 18 19 19 21 25 27 24 21 26 30 30 28 27 24 21 22 22 20 17 18 16
5 6 7 7 7 3 5 5 3 3 3 3 3 5 5 7 5 6 4 6 6 10 13 17 19 20 20 23 27 25 25 31 30 27 28 27 22 18 21 22 21 19 17 16
2 3 3 3 5 5 5 2 2 2 4 4 5 5 5 7 5 6 5 6 6 11 14 18 21 19 18 21 24 27 31 30 28 26 25 24 22 20 19 20 20 21 18 17
3 4 5 3 2 3 4 5 4 4 3 4 6 6 7 8 7 7 7 7 8 11 14 19 18 19 19 24 25 30 31 30 27 26 23 20 20 20 19 19 20 17 13 11
3 4 4 5 4 6 5 6 5 6 7 7 6 8 8 7 9 8 9 10 12 14 17 17 19 20 21 23 26 28 27 31 30 23 21 21 22 23 22 21 17 11 10 11
Wind_Direction
206 156 208 211 210 223 201 220 248 272 297 301 276 278 279 278 254 255 251 217 206 210 213 185 176 176 180 185 183 182 176 173 168 162 157 150 143 137 128 120 113 105 96 82
316 240 225 221 211 220 234 255 267 276 249 269 279 281 279 266 260 238 234 216 219 186 176 163 165 171 182 180 182 181 181 175 174 172 163 153 144 138 130 127 117 106 94 81
218 222 107 209 221 231 232 236 251 262 289 268 298 285 261 245 251 262 230 227 206 200 187 177 176 177 175 176 179 181 180 177 177 169 159 146 140 134 129 126 117 105 93 78
246 212 235 262 251 206 260 202 237 258 274 267 147 289 246 283 259 241 256 229 223 199 190 177 174 176 178 174 177 180 178 175 175 170 163 154 145 138 140 134 126 116 100 85
224 165 199 220 243 205 276 210 226 213 229 282 182 269 56 20 314 281 275 262 232 201 186 186 181 169 166 164 171 173 172 169 170 172 170 161 148 144 141 134 126 112 98 84
240 277 192 201 232 201 245 302 308 253 150 255 204 204 281 256 223 242 254 294 9 259 184 143 140 139 139 153 161 162 163 161 167 171 168 162 154 148 143 137 128 119 105 93
306 218 235 188 238 200 141 85 301 281 188 245 150 206 249 340 20 17 1 355 351 324 149 140 143 144 141 144 146 150 154 153 162 164 161 157 154 154 146 143 135 126 112 99
208 303 174 170 159 190 177 167 183 233 223 270 156 233 194 42 37 35 29 14 21 25 46 93 128 138 138 137 140 141 143 142 151 154 152 151 152 149 140 139 134 123 113 106
235 274 299 193 201 140 290 157 234 251 275 255 247 257 201 58 37 20 10 18 19 33 71 105 118 132 137 138 139 142 140 141 146 149 148 147 150 146 136 136 133 123 115 114
356 303 277 315 31 346 108 70 347 0 244 227 241 208 203 48 31 26 22 16 14 13 34 86 142 143 140 141 141 143 145 144 148 149 150 151 149 143 136 137 133 129 124 122
3 215 296 337 258 148 30 130 57 251 262 269 322 109 59 61 38 358 30 72 96 63 35 35 17 113 132 134 136 139 143 144 147 152 152 148 146 139 136 136 131 129 125 119
196 353 284 239 283 5 187 251 181 192 227 250 308 134 108 67 27 325 299 283 68 103 86 56 54 68 119 135 142 144 148 147 153 157 150 144 143 143 141 135 135 130 121 122
194 165 335 324 9 350 219 125 123 125 59 219 171 240 199 206 247 218 246 239 168 216 145 112 63 48 63 95 148 148 154 154 153 154 149 148 151 149 141 137 134 129 130 129
296 201 204 239 243 167 198 177 199 173 145 195 226 307 205 226 236 222 239 248 214 196 177 167 160 188 174 178 189 168 159 160 159 153 151 151 150 148 141 137 136 132 124 117
230 257 241 246 252 246 218 204 202 210 221 195 265 255 269 254 237 249 236 229 213 214 198 194 199 188 191 187 176 172 169 161 155 149 150 149 148 145 145 143 137 130 123 115
209 241 204 252 249 242 249 236 240 240 251 245 256 269 271 261 236 266 244 233 222 214 215 206 196 190 194 190 172 162 157 154 158 152 148 151 148 148 148 144 137 131 124 124
206 207 227 254 241 256 247 230 223 213 214 223 239 261 310 313 307 266 273 240 272 229 227 211 204 192 186 182 170 164 157 154 151 148 145 148 152 153 149 146 139 130 125 127
225 209 206 231 223 243 252 196 181 202 233 229 213 120 293 288 280 262 246 246 238 267 259 230 201 184 181 174 164 157 153 145 143 140 145 153 156 156 152 142 136 132 134 128
223 230 230 233 216 297 289 221 199 184 213 187 157 161 296 324 329 300 230 223 293 275 268 255 188 174 165 159 153 148 143 142 143 145 152 161 164 155 153 144 142 146 135 127
196 197 201 181 201 217 251 344 99 101 250 185 187 207 200 286 331 261 316 98 104 51 70 89 126 142 148 151 147 143 145 145 142 148 154 164 166 160 155 152 146 147 130 122
189 184 216 210 226 275 223 185 91 156 233 182 207 242 267 208 209 249 330 41 92 113 117 120 130 140 141 144 146 144 145 148 150 155 158 166 166 159 154 152 151 139 135 136
176 173 198 210 198 252 184 138 178 213 183 203 207 237 265 254 265 262 255 132 122 124 126 125 128 139 147 146 143 142 146 148 153 156 158 162 161 154 158 152 147 137 131 143
184 191 173 183 204 206 196 176 158 141 196 220 225 263 272 288 258 237 227 158 150 156 157 147 142 142 149 150 151 148 146 154 154 154 159 158 156 156 159 157 149 144 147 128
182 159 192 137 198 208 191 155 242 271 252 255 243 256 270 269 251 228 203 171 174 169 165 157 147 145 142 150 150 146 152 157 156 154 155 155 155 157 161 162 159 156 146 125
206 132 173 270 4 60 242 227 226 289 237 275 276 267 263 269 246 206 191 180 169 165 159 155 151 148 145 144 146 154 159 160 155 155 155 156 158 163 165 171 172 160 142 130
203 184 162 228 199 185 192 214 212 244 259 271 248 278 266 240 249 184 186 175 161 157 156 153 145 140 142 151 154 160 164 170 158 153 157 164 168 171 171 168 163 163 159 153